RH
18 23 19 15 17 17 16 13 12 10 8 13 15 14 11 21 28 32 32 35 35 35 33 38 43 47 53 60 60 59 53 52 17 22 36 65 68 73 69 65 66 69 80 78
20 22 18 18 16 16 16 17 16 12 11 13 14 14 19 31 33 33 38 42 43 43 43 42 44 49 61 68 66 61 63 67 38 19 21 57 66 74 70 71 71 67 83 71
19 17 20 21 17 16 16 18 17 17 15 14 15 16 34 30 28 33 37 42 47 50 51 48 48 52 62 70 73 70 71 68 53 21 20 20 62 68 70 72 71 74 85 80
19 18 21 18 18 16 22 14 19 20 22 28 18 30 18 30 34 39 42 47 53 54 52 52 53 56 59 72 83 80 80 77 71 23 21 23 36 70 70 69 70 72 76 92
25 25 26 28 24 21 23 19 23 24 27 32 28 26 30 34 46 49 48 50 56 56 57 59 59 62 61 71 87 88 88 84 82 82 28 24 29 50 68 71 70 66 74 83
19 15 18 19 20 21 21 27 28 28 32 47 29 25 53 49 54 56 54 57 61 60 61 64 71 72 72 76 90 97 93 92 91 94 90 65 32 34 66 66 71 65 74 99
19 17 16 20 26 21 28 32 38 34 50 51 24 29 53 46 49 58 63 65 67 64 70 76 80 85 84 83 89 98 99 98 96 98 99 96 74 51 48 70 71 65 73 79
21 29 22 23 29 29 34 33 40 53 39 38 23 45 66 44 45 54 58 65 68 71 74 83 87 94 95 92 95 98 100 100 99 100 100 96 82 84 81 83 68 64 65 76
18 20 20 24 17 27 39 45 36 42 37 48 32 62 51 49 54 59 70 72 86 78 80 87 89 96 92 94 98 99 99 100 100 99 100 99 97 95 89 94 86 65 63 75
21 26 19 15 18 22 30 25 38 48 60 46 36 71 75 76 72 72 90 92 86 83 86 90 94 98 96 97 99 100 100 100 100 99 100 100 100 100 95 99 91 99 86 89
22 28 24 20 24 24 38 40 43 36 41 48 55 79 83 75 75 78 75 96 91 94 96 96 97 96 98 97 100 100 100 100 100 100 100 100 100 100 92 96 97 97 100 91
28 29 35 26 22 21 24 33 33 55 46 58 71 95 67 65 68 68 73 81 89 88 91 90 92 96 95 97 98 100 100 99 99 100 99 100 100 100 98 93 100 92 96 96
34 42 50 30 27 24 31 38 33 38 44 63 86 93 76 75 73 68 84 84 84 77 87 87 85 97 98 98 98 100 99 100 99 100 100 100 100 100 100 100 100 99 91 89
38 41 48 60 63 48 57 44 39 44 62 76 90 96 94 100 99 98 90 88 84 76 83 85 85 85 87 94 99 100 99 99 99 99 98 99 100 100 100 100 99 99 97 98
46 48 37 30 25 40 45 40 49 55 56 70 90 82 86 94 90 100 95 86 79 78 73 79 82 81 82 86 88 90 96 99 100 100 100 100 96 100 97 100 96 99 94 96
42 54 34 36 28 63 56 43 39 48 54 62 85 87 64 59 50 50 51 66 70 71 70 63 65 75 82 84 89 88 86 92 98 95 98 99 97 95 90 97 91 98 96 94
46 53 41 50 44 72 80 77 63 61 61 67 72 73 64 59 53 53 53 51 54 58 60 61 63 73 85 90 93 90 89 88 92 94 90 95 91 87 90 86 84 82 85 88
42 43 43 66 64 73 86 60 61 89 77 86 72 76 64 52 52 50 49 51 52 53 56 58 64 76 86 87 92 90 90 92 93 93 94 92 94 92 93 92 88 81 80 84
38 41 56 58 55 74 57 56 62 64 74 57 59 56 50 43 54 76 50 47 50 53 58 60 62 74 86 90 93 90 91 92 95 96 95 96 94 93 93 93 91 86 84 87
35 42 52 50 52 62 62 41 42 49 85 53 53 60 59 49 65 78 54 48 52 58 63 65 65 76 86 92 92 92 94 94 98 99 98 97 97 95 94 95 91 90 89 89
62 57 63 56 50 68 43 44 48 74 87 57 57 63 61 70 69 58 49 49 57 65 71 72 72 78 84 89 92 91 94 97 99 100 98 99 99 97 98 94 93 92 92 93
57 58 60 53 49 81 40 52 66 82 60 56 60 64 65 60 54 50 48 52 60 69 74 76 79 81 83 87 89 92 95 94 96 96 96 100 98 99 99 95 96 94 93 93
67 50 67 65 80 58 56 64 55 51 59 56 55 52 54 52 48 47 49 52 66 72 77 77 85 85 84 87 87 92 94 90 91 94 96 97 94 96 99 98 94 92 92 92
54 44 69 61 55 54 56 52 51 52 53 48 46 45 45 50 46 46 45 48 67 69 81 81 82 86 89 87 88 94 97 89 92 90 94 92 94 93 95 99 96 96 97 94
42 48 69 66 59 55 52 57 57 57 52 48 46 46 46 44 45 44 46 47 50 55 64 74 80 84 86 85 89 94 97 94 94 87 92 93 89 92 92 92 98 98 98 98
42 68 73 81 67 62 66 62 56 59 55 51 50 49 48 46 45 45 47 49 49 52 55 67 73 79 86 84 88 93 96 95 93 87 92 95 90 89 90 91 88 88 97 91
Wind_Speed
14 7 11 13 4 8 8 12 15 14 13 11 12 14 14 13 17 16 16 18 19 19 22 28 32 37 43 44 44 41 42 46 36 31 26 36 35 35 34 38 36 30 40 40
8 15 9 4 4 6 9 13 15 13 11 10 15 16 5 17 15 16 18 19 21 22 22 28 31 33 36 41 42 40 43 49 41 34 30 31 39 38 38 37 40 45 35 41
14 10 3 5 9 10 12 11 12 13 14 15 17 14 19 15 15 17 19 19 19 20 22 23 30 31 36 37 41 42 42 46 43 34 35 37 38 39 39 39 36 45 36 43
10 2 5 6 10 10 11 7 6 12 11 11 13 6 14 13 16 19 20 19 21 23 23 21 28 31 31 34 37 39 41 43 45 35 34 34 26 34 37 39 40 37 43 42
5 7 6 7 10 2 7 8 10 14 14 15 17 9 7 12 17 19 20 21 22 21 22 22 27 33 32 32 34 36 39 40 42 45 30 35 34 32 41 39 40 39 43 41
15 5 4 10 2 7 10 11 15 16 13 9 16 11 12 9 16 16 17 19 21 20 21 24 31 32 33 35 37 37 35 37 39 40 38 29 33 29 38 44 42 35 36 36
15 14 7 5 7 9 7 11 6 3 6 8 8 7 8 13 14 14 16 18 18 18 19 19 22 28 30 32 36 36 36 40 38 36 35 30 29 31 36 50 42 38 32 35
12 7 14 11 4 5 4 6 5 5 6 11 19 5 6 11 13 15 16 16 17 19 18 17 23 28 29 31 32 33 34 37 40 36 31 24 20 25 29 47 40 41 40 39
8 5 12 7 3 3 3 5 7 7 14 11 6 9 9 14 15 15 17 18 16 18 17 18 25 26 30 31 31 32 33 37 38 38 30 24 21 18 22 17 23 36 43 40
2 6 10 10 3 9 8 5 4 4 4 8 2 8 4 15 16 17 15 15 16 15 17 16 21 25 29 32 32 36 36 37 37 31 27 23 28 30 35 25 18 21 33 30
5 4 8 6 7 8 9 5 4 6 6 6 7 4 3 9 11 13 13 11 13 13 14 14 21 25 29 34 38 37 41 39 35 31 29 27 29 34 37 34 21 26 33 37
4 5 6 11 6 3 3 2 2 2 7 7 4 3 4 8 9 11 12 12 11 12 13 14 21 24 28 34 38 34 37 33 33 32 26 33 26 32 42 37 25 26 31 28
7 5 5 4 6 7 4 4 3 6 7 10 6 4 5 7 9 10 9 10 11 14 14 14 20 22 24 27 29 28 29 31 34 27 29 30 35 35 37 31 26 35 36 19
2 3 3 2 3 4 4 4 3 4 5 6 1 3 5 5 6 7 7 8 10 13 13 13 15 21 26 27 26 27 29 33 31 29 31 28 36 33 33 26 39 40 39 38
2 3 6 6 4 9 2 5 5 2 2 3 2 4 6 2 4 2 1 6 10 12 15 14 14 20 26 29 32 32 29 30 27 25 30 33 30 31 35 32 30 30 33 30
5 2 2 6 10 11 5 7 4 5 3 2 1 6 7 5 4 9 12 10 11 12 13 16 17 21 24 29 30 33 35 35 35 35 33 33 32 31 22 24 30 34 30 20
7 4 4 9 13 7 3 2 1 8 5 4 1 4 6 6 5 9 12 13 14 14 14 15 16 20 22 27 28 29 30 32 33 36 37 40 34 31 32 28 31 31 24 16
7 6 1 4 10 3 2 4 4 9 4 2 2 3 6 6 3 7 11 12 14 15 16 16 19 20 23 25 25 27 28 28 29 28 29 32 30 30 29 31 29 26 23 26
6 5 3 3 7 5 6 9 6 6 6 5 2 3 7 8 9 8 11 11 13 14 18 19 20 21 22 26 26 25 28 29 28 30 28 28 27 28 30 30 29 32 25 25
8 5 5 5 8 3 7 7 4 6 4 4 0 3 7 10 4 6 11 12 15 18 19 21 21 20 22 24 24 25 26 29 30 30 29 28 27 28 30 28 31 25 21 22
6 5 8 7 4 5 6 8 8 4 4 4 5 3 4 5 4 6 8 11 14 16 18 20 20 21 23 25 26 26 28 29 28 26 25 26 28 26 24 26 24 26 27 28
8 6 5 7 6 5 4 10 4 7 6 6 6 4 4 3 2 4 7 10 12 14 16 18 18 20 22 25 26 26 27 28 28 27 27 26 26 25 25 26 24 27 29 27
2 1 1 4 4 9 9 13 10 7 8 6 5 4 4 3 4 6 6 9 11 12 13 16 16 18 21 23 25 25 28 28 28 27 27 28 28 29 28 25 27 29 30 29
4 2 4 3 9 11 11 10 10 9 8 7 5 5 4 5 5 5 7 9 9 10 12 14 16 17 20 22 23 24 26 27 26 25 26 27 27 29 29 26 28 27 28 29
2 8 6 6 9 9 7 9 9 9 7 7 8 7 6 5 6 6 6 8 9 11 11 14 16 16 18 21 23 25 26 25 24 24 24 24 24 25 25 24 21 22 25 29
5 5 5 2 11 4 11 10 9 9 8 7 5 6 8 7 6 6 9 9 9 10 12 12 14 16 18 19 21 23 25 24 23 23 24 24 24 24 23 22 22 22 18 25
Wind_Direction
219 254 255 267 13 346 313 294 288 289 296 326 295 299 304 61 58 42 26 15 7 358 355 349 344 337 332 331 330 331 317 320 280 279 262 232 226 217 227 213 210 206 199 200
240 247 256 350 316 307 283 279 278 287 307 314 306 300 36 83 67 47 27 13 2 354 349 347 344 337 335 327 324 325 325 321 287 264 262 241 232 223 215 222 215 208 204 209
245 281 90 285 279 264 262 272 292 307 313 293 282 284 125 115 61 38 27 16 6 357 348 342 340 340 333 329 327 326 323 316 304 259 258 260 242 229 226 222 215 212 205 206
253 230 261 247 262 271 275 301 322 291 296 291 323 281 291 56 36 24 16 8 4 359 352 341 338 337 332 329 327 327 325 323 327 258 251 257 253 234 222 220 215 205 202 198
240 202 223 248 255 302 267 323 287 284 283 282 271 256 78 53 23 15 9 6 3 358 350 344 341 333 334 334 331 332 334 333 330 325 266 254 249 249 233 220 221 202 201 197
248 150 257 236 241 246 280 285 272 251 246 266 266 240 46 24 23 12 8 11 1 355 350 349 344 341 335 336 336 338 339 340 338 333 323 304 258 252 237 225 217 207 192 182
219 223 196 239 244 227 233 277 300 211 202 238 134 286 59 41 39 24 18 13 360 356 356 351 348 338 339 339 342 336 340 342 338 339 331 321 290 268 248 232 203 206 196 197
194 177 188 171 203 346 314 312 291 304 309 314 317 113 90 51 40 36 19 18 360 2 0 349 344 344 342 339 341 342 345 350 342 337 331 330 321 296 289 238 202 204 200 196
226 166 118 152 171 219 137 243 324 287 276 264 229 98 120 28 18 16 13 7 360 2 355 348 343 345 343 346 347 342 352 351 339 342 338 2 16 7 344 304 226 216 190 187
119 182 176 147 227 237 234 341 274 225 278 298 125 141 9 354 355 359 11 3 356 357 348 343 338 348 347 352 349 354 357 360 341 349 339 13 26 34 27 2 31 316 159 163
176 241 155 146 218 250 197 208 259 305 281 279 299 83 20 355 1 360 354 2 352 351 343 340 340 346 349 357 357 355 2 351 339 346 351 11 26 34 39 17 9 356 63 100
163 217 196 212 148 337 339 88 338 312 296 327 268 144 54 19 10 1 353 356 353 349 342 341 348 350 356 360 354 348 0 346 344 346 9 23 15 37 38 29 354 36 31 66
167 222 176 201 191 190 240 148 247 284 270 268 284 109 76 21 15 355 2 2 357 351 351 348 356 0 357 354 349 345 352 355 355 353 10 31 24 22 39 20 4 40 48 24
16 239 222 7 87 87 155 215 302 301 267 317 58 138 17 24 351 330 4 5 4 358 355 355 358 1 2 355 352 357 356 4 4 10 15 28 32 23 36 7 14 32 42 23
253 224 212 259 241 154 176 237 108 284 312 303 55 83 358 15 316 305 96 14 7 5 3 3 3 3 3 357 357 356 2 12 5 8 15 33 33 30 28 19 19 36 43 34
230 274 223 230 231 126 181 210 188 135 7 76 351 118 26 336 318 17 9 8 9 8 9 3 5 10 5 359 357 356 0 7 5 15 20 17 28 30 27 32 21 29 39 39
179 238 191 244 125 96 288 231 40 115 73 314 331 31 345 348 9 21 8 6 5 5 9 4 9 13 11 1 356 360 1 6 11 14 13 15 15 21 22 25 32 32 31 25
203 217 229 138 131 214 104 166 106 114 136 353 81 339 299 315 116 43 22 7 6 6 6 2 9 15 11 6 2 1 8 11 11 20 18 15 15 20 17 23 21 29 26 27
245 190 231 242 209 106 175 174 167 176 183 198 246 303 324 317 145 58 23 15 14 13 6 0 6 16 10 7 4 6 8 12 14 15 18 18 16 19 21 20 17 21 17 20
196 257 241 209 250 220 112 110 88 122 211 158 4 337 335 332 306 37 5 13 20 13 7 0 5 13 11 6 6 9 10 10 12 10 11 15 16 25 26 19 21 19 18 23
187 193 240 249 246 102 117 121 139 195 104 129 82 46 13 39 21 354 358 24 31 15 7 5 6 13 10 4 8 13 7 9 4 6 13 20 21 22 27 28 23 20 20 24
179 198 207 248 249 167 149 141 219 118 116 115 96 83 81 77 29 16 20 44 29 20 12 10 10 11 8 9 11 12 7 4 4 7 13 17 20 22 25 28 24 26 27 27
206 78 271 31 81 101 71 91 112 127 126 109 110 101 109 59 32 44 34 47 36 32 20 19 16 12 10 13 14 10 2 6 5 12 15 12 14 17 21 28 25 27 25 25
132 47 108 128 138 111 110 106 105 117 119 111 97 83 71 81 36 47 43 36 65 33 38 29 20 16 10 13 16 12 3 7 7 14 12 13 15 15 16 20 28 29 25 23
134 148 121 102 111 117 126 122 123 114 102 101 84 72 53 51 61 47 50 40 35 37 34 34 22 16 14 15 13 9 7 10 9 15 10 15 17 15 15 21 27 39 44 38
166 131 173 164 155 192 141 132 140 143 137 128 121 106 72 50 61 58 64 38 31 33 29 33 24 17 13 15 13 10 7 12 15 19 10 13 14 13 15 16 17 28 42 43